Regional Weather Roundup
Issued by NWS

Home | Current Version | Previous Version | Graphics & Text | Print | Product List | Glossary On
Versions: 1 2 3 4 5 6 7 8 9 10 11 12 13 14 15 16 17 18 19 20 21 22 23 24 25 26 27 28 29 30 31 32 33 34 35 36 37 38 39 40 41 42 43 44 45 46 47 48 49 50
000
ASUS43 KBIS 070120
RWRND

NORTH DAKOTA REGIONAL WEATHER ROUNDUP
NATIONAL WEATHER SERVICE BISMARCK ND
800 PM CDT WED MAY 06 2015

NOTE: "FAIR" INDICATES FEW OR NO CLOUDS BELOW 12,000 FEET WITH NO
SIGNIFICANT WEATHER AND/OR OBSTRUCTIONS TO VISIBILITY.


NDZ001>003-009>011-017-070200-
NORTHWEST NORTH DAKOTA

CITY           SKY/WX    TMP DP  RH WIND       PRES   REMARKS
WILLISTON      LGT RAIN  51  48  89 N18G25    29.74R
MINOT          CLOUDY    60  58  92 CALM      29.63R
MINOT AFB      DRIZZLE   61  61 100 NW8       29.63R
$$

NDZ018>021-031>035-040>046-070200-
SOUTHWEST NORTH DAKOTA

CITY           SKY/WX    TMP DP  RH WIND       PRES   REMARKS
BISMARCK       MOCLDY    65  58  78 E13       29.60S
DICKINSON      LGT RAIN  54  52  93 NW22G30   29.65R
GARRISON         N/A     61  58  90 N6        29.62F
HETTINGER ARPT LGT RAIN  55  53  93 NW20G28   29.65R
$$

NDZ004>008-012>016-024-026-027-054-070200-
NORTHEAST NORTH DAKOTA

CITY           SKY/WX    TMP DP  RH WIND       PRES   REMARKS
GRAND FORKS    LGT RAIN  62  59  90 E13       29.70F
GRND FRKS AFB  CLOUDY    61  61 100 E10       29.69F
DEVILS LAKE    CLOUDY    61  55  82 E18G24    29.66F
$$

NDZ022-023-025-028>030-036>039-047>053-070200-
SOUTHEAST NORTH DAKOTA

CITY           SKY/WX    TMP DP  RH WIND       PRES   REMARKS
FARGO          CLOUDY    65  60  84 SE18G24   29.66F
JAMESTOWN      CLOUDY    61  59  93 E16       29.61F FOG
$$



USA.gov is the U.S. government's official web portal to all federal, state and local government web resources and services.